Regional Weather Roundup
Issued by NWS

Home | Current Version | Previous Version | Graphics & Text | Print | Product List | Glossary On
Versions: 1 2 3 4 5 6 7 8 9 10 11 12 13 14 15 16 17 18 19 20 21 22 23 24 25 26 27 28 29 30 31 32 33 34 35 36 37 38 39 40 41 42 43 44 45 46 47 48 49 50
000
ASUS43 KOAX 231210
RWRNE

WEATHER ROUNDUP FOR NEBRASKA
NATIONAL WEATHER SERVICE OMAHA NE
700 AM CDT THU OCT 23 2014

NOTES: SATELLITE DATA IS BEING USED TO AUGMENT CLOUD COVER ABOVE
       12000 FEET.
       "FAIR" INDICATES FEW OR NO CLOUDS BELOW 12,000 FEET WITH NO
       SIGNIFICANT WEATHER AND/OR OBSTRUCTIONS TO VISIBILITY.

  * THESE STATIONS DO NOT REPORT WEATHER SUCH AS RAIN...SNOW OR FOG.

NEZ001>004-019>022-054>056-231300-
NEBRASKA PANHANDLE

CITY           SKY/WX    TMP DP  RH WIND       PRES   REMARKS
SCOTTSBLUFF    PTCLDY    32  29  88 NE5       30.10R WCI  27
6HR MIN TEMP:  32; 6HR MAX TEMP:  40;

ALLIANCE       CLEAR     25  21  85 W5        30.08R WCI  19
6HR MIN TEMP:  25; 6HR MAX TEMP:  37;

CHADRON        PTCLDY    31  24  75 SW9       30.05R WCI  23
6HR MIN TEMP:  30; 6HR MAX TEMP:  35;

KIMBALL        CLEAR     37  33  87 W7        30.11S WCI  31
SIDNEY         CLEAR     33  30  88 W9        30.11S WCI  25
6HR MIN TEMP:  32; 6HR MAX TEMP:  45;

$$

NEZ057>060-069>072-079>082-231300-
SOUTHWEST NEBRASKA

CITY           SKY/WX    TMP DP  RH WIND       PRES   REMARKS
NORTH PLATTE   FOG       36  36 100 NW5       30.09S VSB 1/4 WCI  32
6HR MIN TEMP:  38; 6HR MAX TEMP:  47;

IMPERIAL       CLEAR     39  31  72 W7        30.10S WCI  34
6HR MIN TEMP:  38; 6HR MAX TEMP:  47;

LEXINGTON      FOG       47  47  98 CALM      30.07F VSB 1/4
MCCOOK         FOG       46  45  96 W5        30.10S VSB 1/4
6HR MIN TEMP:  41; 6HR MAX TEMP:  48;

OGALLALA       CLEAR     34  33  95 W6        30.09S WCI  29
$$

NEZ005>010-023>029-035>040-094-231300-
NORTH CENTRAL NEBRASKA

CITY           SKY/WX    TMP DP  RH WIND       PRES   REMARKS
VALENTINE      CLEAR     31  30  96 CALM      30.02F FOG
6HR MIN TEMP:  31; 6HR MAX TEMP:  42;

AINSWORTH      FOG       38  37  98 S5        30.03S VSB 1/2 WCI  34
BROKEN BOW     FOG       40  39  97 CALM      30.06F VSB 1/4
6HR MIN TEMP:  39; 6HR MAX TEMP:  44;

O`NEILL        FOG       37  37 100 SW5       30.04S VSB 1/2 WCI  33
ORD            FOG       39  39 100 CALM      30.06S VSB 1/4
6HR MIN TEMP:  38; 6HR MAX TEMP:  43;

THEDFORD       LGT RAIN  49  48  99 W7        30.06F VSB 1/4
$$

NEZ041-046>049-061>064-073>077-083>087-231300-
SOUTH CENTRAL NEBRASKA

CITY           SKY/WX    TMP DP  RH WIND       PRES   REMARKS
GRAND ISLAND   FOG       46  44  93 W5        30.07S VSB 1/4
6HR MIN TEMP:  45; 6HR MAX TEMP:  55;

AURORA         FOG       47  47 100 CALM      30.07S VSB 1/4
HASTINGS       FOG       50  49  96 CALM      30.07R VSB 1/4
6HR MIN TEMP:  50; 6HR MAX TEMP:  54;

HEBRON         FOG       51  49  94 CALM      30.07R VSB 1/4
HOLDREGE       FOG       45  44  97 CALM      30.07F VSB<1/4
KEARNEY *      CLOUDY    46  45  93 W5        30.08F VSB<1/4
YORK           FOG       54  54 100 CALM      30.07S VSB 1/4
$$

NEZ011>018-030>034-042>045-231300-
NORTHEAST NEBRASKA

CITY           SKY/WX    TMP DP  RH WIND       PRES   REMARKS
NORFOLK        CLEAR     42  41  96 CALM      30.04F
6HR MIN TEMP:  41; 6HR MAX TEMP:  55;

ALBION         CLEAR     37  35  94 CALM      30.06S
BLAIR          CLOUDY    60  58  92 W3        30.04R FOG
COLUMBUS *     CLOUDY    45  43  93 CALM      30.07S VSB 1/4
FREMONT        FOG       54  53  97 NW3       30.05S VSB 1/4
TEKAMAH        CLOUDY    55  54  96 NW3       30.04R FOG
6HR MIN TEMP:  55; 6HR MAX TEMP:  62; 6HR PCP: TRACE;

WAYNE          CLEAR     43  43  99 SW3       30.04S
$$

NEZ050>053-065>068-078-088>093-231300-
SOUTHEAST NEBRASKA

CITY           SKY/WX    TMP DP  RH WIND       PRES   REMARKS
LINCOLN        FOG       52  52 100 NW3       30.06R VSB 1/4
6HR MIN TEMP:  50; 6HR MAX TEMP:  62;

OMAHA EPPLEY   CLOUDY    62  58  86 SW5       30.03S
6HR MIN TEMP:  62; 6HR MAX TEMP:  63;

BEATRICE       FOG       52  52  99 CALM      30.05S VSB<1/4
FALLS CITY     CLOUDY    62  60  93 S9        30.05R
6HR MIN TEMP:  60; 6HR MAX TEMP:  62; 6HR PCP:  0.11;

NEBRASKA CITY  MOCLDY    60  60 100 SW7       30.04S FOG
PLATTSMOUTH    CLOUDY    60  58  94 SW5       30.04S FOG
$$

NEZ044-045-051>053-067-231300-
OMAHA AREA

CITY           SKY/WX    TMP DP  RH WIND       PRES   REMARKS
OMAHA EPPLEY   CLOUDY    62  58  86 SW5       30.03S
6HR MIN TEMP:  62; 6HR MAX TEMP:  63;

BLAIR          CLOUDY    60  58  92 W3        30.04R FOG
FREMONT        FOG       54  53  97 NW3       30.05S VSB 1/4
MILLARD        CLOUDY    59  58  96 CALM      30.04R FOG
OFFUTT AFB     CLOUDY    59  59 100 W3        30.03R
PLATTSMOUTH    CLOUDY    60  58  94 SW5       30.04S FOG
WAHOO          FAIR      53  51  92 NW5       30.05S
$$



USA.gov is the U.S. government's official web portal to all federal, state and local government web resources and services.